EHI
0 0 0 0 0 0 0 0 0 0 0 0 0 0 0 0 0 0 0 0 0 0 0 0 0 0 0 0 0 0 0 0 0 0 0 0 0 0 0 0 0 0 0
0 0 0 0 0 0 0 0 0 0 0 0 0 0 0 0 0 0 0 0 0 0 0 0 0 0 0 0 0 0 0 0 0 0 0 0 0 0 0 0 0 0 0
0 0 0 0 0 0 0 0 0 0 0 0 0 0 0 0 0 0 0 0 0 0 0 0 0 0 0 0 0 0 0 0 0 0 0 0 0 0 0 0 0 0 0
0 0 0 0 0 0 0 0 0 0 0 0 0 0 0 0 0 0 0 0 0 0 0 0 0 0 0 0 0 0 0 0 0 0 0 0 0 0 0 0 0 0 0
0 0 0 0 0 0 0 0 0 0 0 0 0 0 0 0 0 0 0 0 0 0 0 0 0 0 0 0 0 0 0 0 0 0 0 0 0 0 0 0 0 0 0
0 0 0 0 0 0 0 0 0 0 0 0 0 0 0 0 0 0 0 0 0 0 0 0 0 0 0 0 0 0 0 0 0 0 0 0 0 0 0 0 0 0 0
0 0 0 0 0 0 0 0 0 0 0 0 0 0 0 0 0 0 0 0 0 0 0 0 0 0 0 0 0 0 0 0 0 0 0 0 0 0 0 0 0 0 0
0 0 0 0 0 0 0 0 0 0 0 0 0 0 0 0 0 0 0 0 0 0 0 0 0 0 0 0 0 0 0 0 0 0 0 0 0 0 0 0 0 0 0
0 0 0 0 0 0 0 0 0 0 0 0 0 0 0 0 0 0 0 0 0 0 0 0 0 0 0 0 0 0 0 0 0 0 0 0 0 0 0 0 0 0 0
0 0 0 0 0 0 0 0 0 0 0 0 0 0 0 0 0 0 0 0 0 0 0 0 0 0 0 0 0 0 0 0 0 0 0 0 0 0 0 0 0 0 0
0 0 0 0 0 0 0 0 0 0 0 0 0 0 0 0 0 0 0 0 0 0 0 0 0 0 0 0 0 0 0 0 0 0 0 0 0 0 0 0 0 0 0
0 0 0 0 0 0 0 0 0 0 0 0 0 0 0 0 0 0 0 0 0 0 0 0 0 0 0 0 0 0 0 0 0 0 0 0 0 0 0 0 0 0 0
0 0 0 0 0 0 0 0 0 0 0 0 0 0 0 0 0 0 0 0 0 0 0 0 0 0 0 0 0 0 0 0 0 0 0 0 0 0 0 0 0 0 0
0 0 0 0 0 0 0 0 0 0 0 0 0 0 0 0 0 0 0 0 0 0 0 0 0 0 0 0 0 0 0 0 0 0 0 0 0 0 0 0 0 0 0
0 0 0 0 0 0 0 0 0 0 0 0 0 0 0 0 0 0 0 0 0 0 0 0 0 0 0 0 0 0 0 0 0 0 0 0 0 0 0 0 0 0 0
0 0 0 0 0 0 0 0 0 0 0 0 0 0 0 0 0 0 0 0 0 0 0 0 0 0 0 0 0 0 0 0 0 0 0 0 0 0 0 0 0 0 0
0 0 0 0 0 0 0 0 0 0 0 0 0 0 0 0 0 0 0 0 0 0 0 0 0 0 0 0 0 0 0 0 0 0 0 0 0 0 0 0 0 0 0
0 0 0 0 0 0 0 0 0 0 0 0 0 0 0 0 0 0 0 0 0 0 0 0 0 0 0 0 0 0 0 0 0 0 0 0 0 0 0 0 0 0 0
0 0 0 0 0 0 0 0 0 0 0 0 0 0 0 0 0 0 0 0 0 0 0 0 0 0 0 0 0 0 0 0 0 0 0 0 0 0 0 0 0 0 0
0 0 0 0 0 0 0 0 0 0 0 0 0 0 0 0 0 0 0 0 0 0 0 0 0 0 0 0 0 0 0 0 0 0 0 0 0 0 0 0 0 0 0
0 0 0 0 0 0 0 0 0 0 0 0 0 0 0 0 0 0 0 0 0 0 0 0 0 0 0 0 0 0 0 0 0 0 0 0 0 0 0 0 0 0 0
0 0 0 0 0 0 0 0 0 0 0 0 0 0 0 0 0 0 0 0 0 0 0 0 0 0 0 0 0 0 0 0 0 0 0 0 0 0 0 0 0 0 0
0 0 0 0 0 0 0 0 0 0 0 0 0 0 0 0 0 0 0 0 0 0 0 0 0 0 0 0 0 0 0 0 0 0 0 0 0 0 0 0 0 0 0
0 0 0 0 0 0 0 0 0 0 0 0 0 0 0 0 0 0 0 0 0 0 0 0 0 0 0 0 0 0 0 0 0 0 0 0 0 0 0 0 0 0 0
0 0 0 0 0 0 0 0 0 0 0 0 0 0 0 0 0 0 0 0 0 0 0 0 0 0 0 0 0 0 0 0 0 0 0 0 0 0 0 0 0 0 0
0 0 0 0 0 0 0 0 0 0 0 0 0 0 0 0 0 0 0 0 0 0 0 0 0 0 0 0 0 0 0 0 0 0 0 0 0 0 0 0 0 0 0
Wind_Speed
9 8 8 8 8 7 7 8 8 7 6 6 6 5 5 5 4 4 4 4 4 4 4 5 6 6 5 5 5 5 6 6 6 3 2 1 2 3 4 4 4 5 6
9 9 9 9 8 8 9 10 9 8 8 8 7 7 7 7 5 5 6 5 5 5 5 5 6 5 6 5 5 7 6 7 6 6 3 2 2 4 5 5 4 5 6
10 9 10 10 10 11 11 10 9 9 9 8 8 8 9 8 7 7 7 6 6 6 6 6 6 6 6 5 6 7 6 6 6 5 4 2 2 4 5 5 6 5 6
9 9 10 11 12 12 11 10 10 9 9 9 9 9 9 9 8 8 7 7 7 7 6 6 7 7 7 7 6 7 7 7 7 6 5 4 3 5 5 5 5 4 5
9 10 12 12 11 11 11 11 10 10 11 10 9 9 9 8 9 9 9 8 8 7 7 7 7 9 11 8 7 7 8 7 7 6 6 5 5 6 6 5 6 6 4
10 11 11 11 10 10 11 10 10 10 10 9 10 10 10 9 11 14 11 8 8 8 8 8 8 9 11 12 13 12 11 10 9 8 7 8 8 8 7 8 8 6 4
10 11 11 10 11 11 11 10 10 10 9 9 10 10 10 11 14 14 14 9 8 8 8 8 7 7 8 8 10 12 13 14 13 10 10 10 11 11 11 11 8 6 5
11 12 11 10 11 10 10 10 9 8 8 8 9 9 9 11 14 14 14 9 8 9 9 9 9 9 8 8 8 8 9 11 13 11 9 10 10 11 12 11 10 9 7
13 12 11 11 11 10 10 10 9 7 8 7 6 8 9 10 13 13 12 6 7 9 9 9 10 10 11 11 9 9 8 8 10 11 10 10 14 16 14 11 11 11 8
13 13 12 11 11 12 11 10 8 7 8 7 7 8 9 9 11 13 11 5 7 7 7 8 11 12 11 11 10 9 9 8 8 9 9 12 13 16 18 14 13 12 9
14 13 13 11 11 11 10 9 8 8 7 7 8 7 8 10 11 13 11 7 7 7 7 6 7 10 12 13 11 9 9 7 8 9 9 10 10 10 10 9 9 11 10
13 13 12 11 10 10 8 7 7 7 7 7 7 7 6 7 9 10 12 12 10 8 7 6 6 9 10 11 9 9 9 9 7 8 9 10 10 10 9 9 8 6 4
13 12 11 11 9 8 8 8 6 6 6 6 6 7 6 5 6 11 12 12 13 9 7 9 9 9 8 8 10 11 9 8 8 9 10 9 8 10 10 8 9 8 8
13 12 10 9 8 7 6 5 5 5 6 6 6 6 5 4 5 5 5 6 8 8 7 7 8 8 6 6 7 8 7 7 8 8 8 8 8 10 10 9 9 9 7
12 10 9 7 6 6 5 4 6 6 6 6 5 5 5 5 6 7 5 5 5 5 4 3 4 4 4 5 5 6 6 7 8 7 9 10 10 10 9 9 9 8 7
10 9 7 6 5 4 4 4 5 6 7 9 9 6 5 7 6 6 7 7 6 6 4 4 5 5 5 6 6 6 6 7 8 9 10 10 11 11 10 9 9 9 9
10 9 7 6 5 4 3 3 3 2 2 2 4 7 7 5 4 4 5 4 5 6 4 4 5 5 5 5 6 6 6 7 7 9 10 10 10 10 10 10 9 9 8
10 9 8 5 4 3 3 2 2 1 1 1 1 1 2 3 3 4 5 4 3 3 3 4 4 4 5 6 6 6 7 7 8 9 10 10 11 11 11 10 10 10 9
9 6 5 4 4 3 2 2 1 1 1 1 1 3 3 3 3 4 4 3 3 3 3 3 3 4 5 6 6 7 8 8 9 9 10 10 10 11 10 10 9 12 10
7 10 7 4 3 3 2 1 1 1 1 1 1 2 1 1 1 2 2 1 2 2 2 3 3 4 5 6 7 8 8 9 10 9 10 9 9 10 11 11 10 10 9
6 6 8 4 3 2 2 1 1 1 1 1 1 1 1 1 1 1 1 1 1 2 2 3 4 5 6 6 8 9 10 9 9 9 9 9 9 9 9 9 10 9 9
5 4 3 3 3 2 2 1 1 2 2 2 1 1 1 1 1 1 0 1 1 1 2 3 4 5 6 7 8 9 9 9 9 9 9 9 9 9 9 9 9 8 9
5 4 3 3 2 3 3 3 2 2 2 2 2 2 1 1 1 1 1 1 1 2 3 3 5 5 5 6 7 9 10 9 9 10 10 9 9 8 9 9 10 10 9
4 4 3 3 3 3 3 3 3 3 3 2 2 2 1 1 1 1 1 1 2 2 3 3 4 7 9 7 6 6 7 9 10 10 13 11 9 8 8 8 9 10 9
4 4 3 3 3 3 3 3 3 3 3 2 2 2 2 2 2 2 1 1 2 2 4 4 4 6 9 10 8 7 10 11 10 9 10 9 10 9 9 9 8 8 8
5 4 4 3 3 3 3 3 3 3 3 2 2 2 2 2 2 1 1 2 2 3 4 4 5 7 8 8 10 11 10 10 10 10 9 8 9 8 9 7 9 8 9
Wind_Direction
252 250 252 251 244 237 234 238 238 238 234 236 242 247 255 260 260 256 256 257 256 259 257 243 238 224 214 212 208 207 210 213 238 239 214 173 148 136 109 92 83 73 71
253 251 249 251 250 245 242 242 238 237 237 234 236 238 244 249 245 242 253 254 247 250 252 252 253 242 226 214 209 212 212 210 220 229 207 182 162 148 129 113 99 88 82
255 252 253 253 250 247 245 243 238 236 239 237 231 235 239 240 240 238 239 246 244 245 245 244 249 248 244 227 218 217 215 212 209 211 200 173 146 144 131 115 106 98 90
266 261 259 256 252 248 247 244 239 234 235 237 233 233 235 236 238 238 235 239 242 244 243 244 245 242 243 236 227 222 215 211 206 203 193 174 155 147 141 136 123 104 92
274 268 263 261 257 252 249 246 242 236 236 234 234 235 233 231 235 233 232 235 235 241 247 247 247 247 244 238 232 221 209 209 204 199 190 176 167 162 157 147 134 118 84
279 275 272 269 264 256 251 248 243 239 236 231 229 232 232 232 231 229 226 229 231 236 248 253 255 258 254 246 238 224 209 206 206 199 193 187 178 168 153 151 146 143 128
282 280 277 274 272 266 261 254 245 240 234 228 230 229 231 234 233 235 235 228 230 236 241 249 258 257 247 247 243 231 219 213 207 201 196 190 177 171 160 160 160 148 130
285 283 281 278 277 275 268 259 252 246 236 229 229 227 228 238 237 236 237 232 232 238 240 242 246 255 250 239 240 234 227 219 214 211 208 194 178 168 165 157 143 119 105
291 288 286 282 280 275 271 265 258 251 244 232 228 228 228 239 238 236 234 224 231 240 242 242 240 248 244 231 230 230 227 222 215 207 199 180 164 158 152 143 144 141 135
294 290 286 279 276 272 267 262 257 249 247 242 235 230 228 235 239 237 229 218 231 241 244 243 240 240 240 226 224 222 222 212 189 181 174 163 160 157 157 160 158 153 144
296 292 288 279 273 270 266 259 252 248 245 243 242 238 230 231 239 238 230 214 223 233 240 242 239 233 234 228 220 221 219 198 182 175 166 161 159 161 162 159 159 159 155
298 296 291 283 278 278 266 261 253 244 241 242 243 247 240 234 233 238 234 225 217 224 235 239 237 232 230 228 221 213 205 190 179 171 165 162 161 162 161 156 147 138 119
303 299 294 290 280 274 267 262 253 242 239 239 235 239 242 235 233 234 237 233 223 222 234 236 234 231 227 227 220 200 190 188 178 173 168 162 157 153 147 136 120 107 95
306 305 300 295 288 281 269 256 246 239 235 235 231 233 239 240 236 229 227 228 227 225 230 232 225 221 219 218 199 192 194 188 178 169 156 147 141 144 147 144 140 135 120
312 309 308 301 293 290 281 260 249 240 230 224 226 225 227 239 235 220 210 209 205 207 199 205 200 195 201 200 191 185 180 174 168 153 148 147 146 145 146 146 144 145 141
316 314 311 308 302 295 294 290 256 245 245 233 232 230 231 236 247 238 218 213 207 192 188 202 201 199 198 191 182 171 167 165 159 150 149 148 148 148 145 147 153 155 150
316 315 311 309 306 300 297 301 308 297 266 245 241 236 235 243 245 211 191 187 194 189 204 210 202 194 188 178 169 160 156 152 149 147 146 145 143 144 146 149 151 150 147
317 316 318 314 314 309 305 307 308 313 333 35 32 6 214 209 186 166 160 155 177 198 209 207 197 182 173 166 157 150 145 141 141 140 139 140 141 143 144 147 150 149 145
318 314 315 317 319 318 316 316 327 346 38 69 68 56 80 107 115 139 162 180 190 202 201 201 182 164 159 154 147 144 141 138 136 135 135 137 140 141 142 145 144 144 144
318 325 331 326 331 339 344 353 16 31 59 71 78 84 97 104 114 133 173 196 194 180 168 161 153 149 144 143 141 138 134 132 133 134 134 135 137 139 142 144 147 150 152
317 323 336 337 338 342 350 6 30 56 72 73 68 88 95 107 116 137 173 179 141 127 131 135 136 132 128 129 133 133 131 133 135 135 134 136 137 138 140 144 147 148 146
322 325 333 338 343 360 11 22 50 67 76 76 68 77 70 45 55 58 72 108 112 109 122 125 123 122 128 131 131 130 132 135 137 137 136 137 137 139 141 144 147 150 150
336 343 353 358 4 18 35 49 59 70 73 69 69 74 68 19 23 27 39 45 77 98 107 114 116 119 123 127 132 138 142 145 146 144 141 141 143 144 147 150 153 154 159
345 355 8 15 22 33 42 51 59 69 77 72 70 71 50 19 26 42 54 64 81 91 105 121 129 134 133 131 135 139 140 141 143 146 146 146 147 148 150 154 160 166 167
354 6 20 29 36 47 55 57 60 66 66 58 55 54 43 32 32 38 40 56 81 94 106 116 124 134 140 142 141 136 133 135 139 143 145 145 149 152 155 158 159 160 160
6 18 27 40 46 52 61 61 57 59 62 56 52 46 33 30 26 39 57 73 82 88 99 107 125 134 137 139 135 132 133 136 138 141 145 145 148 155 158 159 162 164 165